Other Public Products
Issued by NWS Grand Forks, ND

Home | Current Version | Previous Version | Graphics & Text | Print | Product List | Glossary On
Versions: 1 2 3 4 5 6 7 8 9 10 11 12 13 14 15 16 17 18 19 20 21 22 23 24 25 26 27 28 29 30 31 32 33 34 35 36 37 38 39 40 41 42 43 44 45 46 47 48 49 50
000
FPUS83 KFGF 111131
OPUFGF
PRAIRIE TO PINES WEATHER ROUNDUP
NATIONAL WEATHER SERVICE EASTERN NORTH DAKOTA/GRAND FORKS ND
500 AM CST MON DEC 11 2017

 **SATELLITE DATA USED TO AUGMENT SKY COVER AT AUTOMATED STATIONS**
 *****  WEATHER ACROSS EASTERN NORTH DAKOTA  *****

CITY           SKY/WX    TMP DP  RH WIND       PRES   REMARKS
GRAND FORKS    CLOUDY    35  32  88 N32G44    29.78R WCI  21
GRND FORKS AFB LGT RAIN  36  32  87 N24G36    29.79R
GRND FORKS NWS   N/A     34 N/A N/A VRB18       N/A  WCI  23
BUXTON           N/A     36  33  90 NW21        N/A
DEVILS LAKE    CLOUDY    35  32  88 N23G33    29.83R WCI  23
FARGO          CLOUDY    37  33  85 NW17      29.73R
WAHPETON ARPT  CLOUDY    36  32  87 NW17G25   29.74R
$$

 *****  WEATHER ACROSS CENTRAL AND WESTERN NORTH DAKOTA  *****

CITY           SKY/WX    TMP DP  RH WIND       PRES   REMARKS
JAMESTOWN      CLOUDY    37  34  89 NW26G41   29.80R
BISMARCK       CLOUDY    44  33  65 NW21G37   29.96R
MINOT          CLOUDY    38  33  82 NW23G35   29.96R
MINOT AFB      CLOUDY    38  32  81 NW24      29.95R
GARRISON         N/A     38  31  76 NW31G38   29.97R
WILLISTON      CLOUDY    37  30  75 N29G44    30.12R
DICKINSON      CLOUDY    37  30  75 NW29G40   30.06R
HETTINGER      CLOUDY    38  26  62 NW31G41   30.08R
$$

 *****  OTHER OBSERVATIONS NORTHEAST NORTH DAKOTA  *****

CITY           SKY/WX    TMP DP  RH WIND       PRES   REMARKS
WALHALLA       MIX PCPN  28  28 100 N26G38    29.87R WCI  13
LANGDON        NOT AVBL
CAVALIER       LGT RAIN  28  27  93 N26G38    29.84R WCI  13
GRAFTON        NOT AVBL
CANDO          CLOUDY    34  34 100 N18G29    29.89R WCI  23
FORT TOTTEN      N/A     36  33  89 NW13      29.95S
ROLLA          CLOUDY    32  30  93 N24G32    29.90R WCI  19
RUGBY          NOT AVBL
 ***** THE ABOVE OBSERVATIONS ARE NON NWS ARE NOT QUALITY
        CONTROLLED AND MAY MIS-REPORT RAIN FOR SNOW...
$$

 *****  OTHER OBSERVATIONS SOUTHEAST NORTH DAKOTA *****

CITY           SKY/WX    TMP DP  RH WIND       PRES   REMARKS
COOPERSTOWN    CLOUDY    36  34  93 NW26G33   29.79R
VALLEY CITY    NOT AVBL
OAKES            N/A     37  36  93 NW28G36   29.79R
GWINNER          N/A     37  36  93 NW23      29.77R
SHEYENNE NWR     N/A     37  35  93 NW13      29.95S
BUFFALO          N/A     36  32  87 SW23        N/A
WYNDMERE       NOT AVBL
 ***** THE ABOVE OBSERVATIONS ARE NON NWS ARE NOT QUALITY
       CONTROLLED AND MAY MIS-REPORT RAIN FOR SNOW...
$$

  *****  WEATHER ACROSS NORTHERN MINNESOTA  *****

CITY           SKY/WX    TMP DP  RH WIND       PRES   REMARKS
FLAG ISLAND    CLOUDY    19  18  93 N8        29.73R WCI   9
WARROAD        CLOUDY    21  19  93 N7        29.73R WCI  13
ROSEAU         CLOUDY    23  19  86 N9        29.73R WCI  13
HALLOCK        CLOUDY    28  27  93 N28G39    29.79R FOG     WCI  13
THF RVR FALLS  LGT SNOW  32  30  92 NW20      29.71R FOG     WCI  20
HALSTAD        NOT AVBL
FOSSTON        CLOUDY    30  28  93 W9        29.69R WCI  22
BAUDETTE       LGT SNOW  21  19  92 N5        29.70R FOG     WCI  15
WASKISH        LGT SNOW  25  23  93 CALM      29.67R
CROOKSTON      MIX PCPN  36  32  87 N29       29.73R
$$
  *****  WEATHER ACROSS CENTRAL AND WEST MINNESOTA  *****

CITY           SKY/WX    TMP DP  RH WIND       PRES   REMARKS
BEMIDJI        CLOUDY    28  26  93 W5        29.66R WCI  22
PARK RAPIDS    CLOUDY    28  25  88 CALM      29.67R
WADENA         MOCLDY    30  30 100 W6        29.68R WCI  24
DETROIT LAKES  MOCLDY    34  32  93 W12       29.69R
MOORHEAD       CLOUDY    36  32  87 NW18      29.73R
FERGUS FALLS   FAIR      34  30  86 NW15      29.73S WCI  24
ELBOW LAKE     FAIR      33  29  86 NW9       29.71S FOG
MORRIS MN      FAIR      37  28  70 NW18      29.70F
STAPLES        CLOUDY    27  27 100 CALM      29.68F
WHEATON        NOT AVBL
$$
  *****  WEATHER ELSEWHERE ACROSS MINNESOTA  *****

CITY           SKY/WX    TMP DP  RH WIND       PRES   REMARKS
DULUTH         LGT SNOW  19  19 100 S7        29.71F FOG     WCI  10
INTRNTL FALLS  LGT SNOW  20  16  84 CALM      29.69R VSB 3/4
ELY            LGT SNOW  18  14  86 S5        29.69F WCI  11
CLOQUET        LGT SNOW  19  18  93 CALM      29.71F
BRAINERD       LGT SNOW  28  25  88 SW8       29.70R FOG     WCI  20
HIBBING        CLOUDY    18  18 100 S5        29.69S FOG     WCI  11
ALEXANDRIA     MOCLDY    29  27  92 SW6       29.70S WCI  23
SAINT CLOUD    CLOUDY    29  28  96 S8        29.69F WCI  21
MINNEAPOLIS    CLOUDY    28  26  92 S7        29.77F WCI  21
$$

  *****  WEATHER ACROSS SOUTH DAKOTA  *****

CITY           SKY/WX    TMP DP  RH WIND       PRES   REMARKS
SIOUX FALLS    FAIR      36  25  64 W20G25    29.81F
BROOKINGS      FAIR      37  24  59 NW21G29   29.79F
WATERTOWN      LGT SNOW  33  31  92 NW16G24   29.77R FOG     WCI  23
HURON          MOCLDY    41  27  57 NW25G37   29.86S
SISSETON         N/A     38  35  89 NW17      29.74R
ABERDEEN       CLOUDY    42  33  70 NW28G41   29.84R
MITCHELL       FAIR      39  25  57 NW20G28   29.90R
PIERRE         FAIR      44  27  51 NW40G52   30.01R
MOBRIDGE       CLOUDY    42  30  62 NW25G36   29.93R
RAPID CITY     FAIR      48  14  25 NW32G43   30.16S
$$

  *****  SOME WEATHER IN NEARBY STATES *****

CITY           SKY/WX    TMP DP  RH WIND       PRES   REMARKS
GLASGOW MT     FAIR      33  23  66 NW8       30.29R
GREAT FALLS MT FAIR      26  13  57 VRB6      30.42S WCI  19
CHEYENNE WY    FAIR      41  -1  17 N13G22    30.30S
SCOTTSBLUFF NE FAIR      27  12  53 NW9       30.27S WCI  18
OMAHA NE       FAIR      38  19  46 NE8       29.92F
DES MOINES IA  CLOUDY    33  25  72 CALM      29.87F
DAVENPORT IA   FAIR      28  22  78 S6        29.96F WCI  22
CHICAGO IL     FLURRIES  27  20  75 S5        30.00R WCI  22
EAU CLAIRE WI  CLOUDY    24  22  91 S9        29.80F FOG     WCI  14
LA CROSSE WI   CLOUDY    27  23  85 S13       29.87F WCI  16
$$

  *****  SOME NATIONAL WEATHER *****

CITY           SKY/WX    TMP DP  RH WIND       PRES   REMARKS
LA GUARDIA NY  CLOUDY    35  23  61 SW10      30.01R
RALEIGH NC     FAIR      28  24  85 CALM      30.13R
ATLANTA GA     FAIR      33  28  81 W6        30.18S
NEW ORLEANS LA FAIR      37  35  92 CALM      30.31F
OKLAHOMA CITY  FAIR      36  17  46 CALM      30.20F
ALBUQUERQUE NM FAIR      30   2  30 N10       30.47S WCI  21
SALT LAKE CITY FOG       22  21  96 CALM      30.60F VSB 1/4
LOS ANGELES CA MOCLDY    63  18  17 NE6       30.16F
BOISE ID       CLOUDY    23  21  92 S5        30.67F WCI  17
SEATTLE WA     FAIR      34  31  88 CALM      30.32S
$$

*** WEATHER ACROSS MANITOBA...SASKATCHEWAN AND ONTARIO ***
                ***ONTARIO***

CITY           SKY/WX    TMP DP  RH WIND       PRES   REMARKS
GERALDTON      CLOUDY     0  -4  85 SW5       29.79F WCI -10
THUNDER BAY    LGT SNOW   5   1  85 W3        29.82S
SIOUX LOOKOUT  FLURRIES   7   3  85 CALM      29.71R
TORONTO        FLURRIES  19  12  73 N9        29.99S WCI   9
BIG TROUT LK   LGT SNOW  -2  -6  84 N7        29.79R WCI -16
PICKLE LAKE    FLURRIES  -2  -6  84 SW2       29.70
DRYDEN         FLURRIES  10   9  92 CALM      29.70R
KENORA         FLURRIES  16  14  93 N7        29.73R WCI   6
$$
                *** MANITOBA***

CITY           SKY/WX    TMP DP  RH WIND       PRES   REMARKS
BRANDON        MOCLDY    28  23  80 N18G25    29.98R WCI  16
DAUPHIN        CLOUDY    19  16  86 N14G24    30.11R WCI   6
ISLAND LAKE    PTCLDY    -2  -6  84 N10       29.96R WCI -19
PILOT MOUND      N/A     28  27  93 N18G28      N/A  WCI  16
THE PAS        MOCLDY     9   3  78 N15G24    30.22R WCI  -8
THOMPSON       PTCLDY    -6 -11  77 NW6       30.13R WCI -18
WINNIPEG       CLOUDY    23  19  86 N21G30    29.88R WCI   8
LYNN LAKE      CLEAR     -9 -13  84 NW5       30.18R WCI -21
CHURCHILL      LGT SNOW  -6 -11  77 N29G35    30.01S VSB 1   WCI -33
GILLAM         FLURRIES  -8 -13  77 NW12      30.03  WCI -27
$$
                ***SASKATCHEWAN***

CITY           SKY/WX    TMP DP  RH WIND       PRES   REMARKS
ESTEVAN        DRIZZLE   34  30  86 NW26G37   30.08R WCI  21
KINDERSLEY     PTCLDY    27  23  86 W10       30.30R WCI  17
LLOYDMINSTER   CLEAR     28  25  86 W10       30.27R WCI  19
PRINCE ALBERT  CLOUDY    32  25  74 N8        30.23R WCI  25
REGINA         CLOUDY    34  30  86 NW21G28   30.17R WCI  22
YORKTON        CLOUDY    27  23  86 N20G26    30.11R WC



USA.gov is the U.S. government's official web portal to all federal, state and local government web resources and services.